Weather History for KOKC - February, 2013

Change the Weather History Date:

Friday, February 1, 2013

  Actual Average Record
Temperature  
Mean Temperature 35 °F 41 °F  
Max Temperature 51 °F 52 °F 90 °F (1911)
Min Temperature 19 °F 30 °F -2 °F (1951)
Degree Days  
Heating Degree Days 30 24  
Month to date heating degree days 30 24  
Since 1 July heating degree days 1982 2177  
Moisture  
Dew Point 16 °F    
Average Humidity 48    
Maximum Humidity 67    
Minimum Humidity 28    
Precipitation  
Precipitation 0.00 in 0.05 in 0.71 in (1990)
Month to date precipitation 0.00 0.05  
Year to date precipitation 1.14 1.44  
Snow  
Snow 0.00 in 0.10 in 11.80 in (2011)
Month to date snowfall 0.0 0.1  
Since 1 July snowfall 1.4 5.4  
Snow Depth -    
Sea Level Pressure  
Sea Level Pressure 30.31 in    
Wind  
Wind Speed 9 mph (ESE)    
Max Wind Speed 22 mph    
Max Gust Speed 26 mph    
Visibility 10 miles    
Events      
T = Trace of Precipitation, MM = Missing Value Source: NWS Daily Summary

Daily Weather History Graph

Daily Weather History Graph

Search for Another Location

Airport or City:

Trip Planner

Search our weather history database for the weather conditions in past years. The results will help you decide how hot, cold, wet, or windy it might be!

Date:

Astronomy

Feb. 01, 2013 Rise Set
Actual Time 7:29 AM CST 5:58 PM CST
Civil Twilight 7:02 AM CST 6:25 PM CST
Nautical Twilight 6:32 AM CST 6:55 PM CST
Astronomical Twilight 6:02 AM CST 7:25 PM CST
Moon 11:51 PM CST (2/1) 10:18 AM CST (2/1)
Length of Visible Light 11h 22m
Length of Day
10h 29m
Waning Gibbous, 70% of the Moon is Illuminated
Feb 1
Waning Gibbous
Feb 3
Last Quarter
Feb 10
New
Feb 17
First Quarter
Feb 25
Full

Hourly Weather History & Observations

Time (CST) Temp. Windchill Dew Point Humidity Pressure Visibility Wind Dir Wind Speed Gust Speed Precip Events Conditions
12:52 AM 25.0 °F 12.6 °F 10.0 °F 53% 30.41 in 10.0 mi NE 15.0 mph - N/A   Clear
1:52 AM 24.1 °F 15.2 °F 10.9 °F 57% 30.41 in 10.0 mi NE 8.1 mph - N/A   Clear
2:52 AM 23.0 °F 11.7 °F 9.0 °F 55% 30.42 in 10.0 mi NE 11.5 mph - N/A   Clear
3:52 AM 21.9 °F 11.7 °F 10.0 °F 60% 30.41 in 10.0 mi NE 9.2 mph - N/A   Clear
4:52 AM 19.9 °F 12.1 °F 10.0 °F 65% 30.41 in 10.0 mi ENE 5.8 mph - N/A   Clear
5:52 AM 19.9 °F 8.6 °F 10.0 °F 65% 30.40 in 10.0 mi East 10.4 mph - N/A   Clear
6:52 AM 19.9 °F 9.3 °F 10.0 °F 65% 30.41 in 10.0 mi East 9.2 mph - N/A   Partly Cloudy
7:52 AM 19.9 °F 14.9 °F 10.9 °F 68% 30.43 in 10.0 mi ESE 3.5 mph - N/A   Partly Cloudy
8:52 AM 24.1 °F 17.0 °F 9.0 °F 53% 30.43 in 10.0 mi East 5.8 mph - N/A   Partly Cloudy
9:52 AM 27.0 °F 18.7 °F 7.0 °F 43% 30.43 in 10.0 mi SE 8.1 mph - N/A   Partly Cloudy
10:52 AM 30.9 °F 23.5 °F 9.0 °F 40% 30.42 in 10.0 mi SSE 8.1 mph - N/A   Clear
11:52 AM 36.0 °F 29.0 °F 10.0 °F 34% 30.37 in 10.0 mi SE 9.2 mph 16.1 mph N/A   Clear
12:52 PM 41.0 °F 33.9 °F 10.9 °F 29% 30.31 in 10.0 mi SE 12.7 mph 18.4 mph N/A   Clear
1:52 PM 45.0 °F 38.9 °F 15.1 °F 30% 30.27 in 10.0 mi South 12.7 mph - N/A   Clear
2:52 PM 48.0 °F - 19.0 °F 32% 30.22 in 10.0 mi South 15.0 mph - N/A   Clear
3:52 PM 50.0 °F - 21.9 °F 33% 30.17 in 10.0 mi South 13.8 mph - N/A   Clear
4:52 PM 50.0 °F - 23.0 °F 35% 30.16 in 10.0 mi SSE 16.1 mph 21.9 mph N/A   Clear
5:52 PM 46.0 °F 40.6 °F 25.0 °F 44% 30.15 in 10.0 mi South 11.5 mph - N/A   Clear
6:52 PM 39.9 °F 33.9 °F 25.0 °F 55% 30.15 in 10.0 mi South 9.2 mph - N/A   Clear
7:52 PM 39.0 °F 36.8 °F 25.0 °F 57% 30.18 in 10.0 mi South 3.5 mph - N/A   Clear
8:52 PM 39.0 °F - 25.0 °F 57% 30.19 in 10.0 mi Calm Calm - N/A   Clear
9:52 PM 37.9 °F 32.7 °F 25.0 °F 60% 30.21 in 10.0 mi North 6.9 mph - N/A   Clear
10:52 PM 37.9 °F 35.5 °F 25.0 °F 60% 30.20 in 10.0 mi ENE 3.5 mph - N/A   Clear
11:52 PM 37.0 °F 32.4 °F 26.1 °F 65% 30.19 in 10.0 mi ENE 5.8 mph - N/A   Clear